Zurück zum Katalog

COSMOS 2251 DEB

AktivLEO
NORAD 34750·DEBRIS·🇷🇺 Russia

Gestartet Jun 16, 1993 von Plesetsk Cosmodrome

Loading…

Nächste Überflüge (nächste 24 Stunden)

TLE

AktuellSource: Space-Track

Epoche: Sep 14, 2026, 09:38 UTC

1 34750U 93036ZU  26257.40207209  .00003467  00000-0  65975-3 0  9991
2 34750  74.1072  35.5458 0035975 271.6765 118.1377 14.64078347922628

Verfolge COSMOS 2251 DEB in Echtzeit mit AllMySat

Download on the App Store